Location: Rounton
(54.4000°N, 1.3500°W)
Time: 22:10:10
(UTC+00:00)

Vanguard 1 - Pass Details

Date: 30 November 2021
Orbit: 652 x 3830 km, 34.2° (Epoch: 16 January)

Event Time Altitude Azimuth Distance (km) Brightness Sun altitude
Rises 23:28:51 0° 206° (SSW) 7,535 - -57.0°
Reaches altitude 10° 23:35:02 10° 196° (SSW) 6,766 - -57.2°
Maximum altitude 23:52:06 28° 148° (SSE) 5,473 - -57.4°
Exits shadow 00:04:40 15° 107° (ESE) 5,874 13.8 -57.3°
Drops below altitude 10° 00:07:28 10° 101° (E) 6,140 14.0 -57.3°
Sets 00:12:35 0° 90° (E) 6,762 14.4 -57.2°
